Regional Weather Roundup
Issued by NWS

Home | Current Version | Previous Version | Text Only | Print | Product List | Glossary Off
Versions: 1 2 3 4 5 6 7 8 9 10 11 12 13 14 15 16 17 18 19 20 21 22 23 24 25 26 27 28 29 30 31 32 33 34 35 36 37 38 39 40 41 42 43 44 45 46 47 48 49 50

989
ASUS45 KBOI 131510
RWRID

IDAHO REGIONAL WEATHER ROUNDUP
NATIONAL WEATHER SERVICE BOISE ID
800 AM MST SAT FEB 13 2016

NOTE: "FAIR" INDICATES FEW OR NO CLOUDS BELOW 12000 FEET
WITH NO SIGNIFICANT WEATHER AND/OR OBSTRUCTIONS TO VISIBILITY

IDZ012-014-131600-
SOUTHWEST IDAHO


CITY           SKY/WX    TMP DP  RH WIND       PRES   REMARKS
BOISE          PTCLDY    31  30  96 CALM      30.31R FOG
CALDWELL       FOG       28  28 100 CALM      30.34R VSB 3/4
MOUNTAIN HOME  CLOUDY    32  31  93 NW5       30.30R WCI  28
$$

IDZ016-017-131600-
SOUTHCENTRAL IDAHO


CITY           SKY/WX    TMP DP  RH WIND       PRES   REMARKS
BURLEY         MOCLDY    36  29  75 SW12      30.21R WCI  28
JEROME         FOG       29  27  92 SW9       30.26R VSB 3/4 WCI  20
TWIN FALLS     CLEAR     34  30  85 SW13      30.25R WCI  25
$$

IDZ019>023-131600-
SOUTHEAST IDAHO


CITY           SKY/WX    TMP DP  RH WIND       PRES   REMARKS
IDAHO FALLS    CLOUDY    17  16  95 S3        30.16F FOG
POCATELLO      CLOUDY    36  24  62 S17G24    30.17S WCI  26
REXBURG        CLOUDY    20  18  92 CALM      30.14F FOG
$$

IDZ006-010-011-018-031-032-131600-
CENTRAL IDAHO MOUNTAINS


CITY           SKY/WX    TMP DP  RH WIND       PRES   REMARKS
MCCALL         MOCLDY    27  25  92 NW7       30.21R WCI  19
HAILEY         PTCLDY    21  19  93 W6        30.18R WCI  14
STANLEY          N/A     37  18  46 W13G23    30.18R WCI  29
SALMON         CLOUDY    27  25  93 SW9       30.12R WCI  17
CHALLIS        MOCLDY    43  20  39 W18G29    30.09R
$$

IDZ002-004-006-007-026-131600-
NORTHERN IDAHO


CITY           SKY/WX    TMP DP  RH WIND       PRES   REMARKS
LEWISTON       CLOUDY    45  32  60 W9        30.26R
LOWELL           N/A     38  36  92 CALM      30.28R
COEUR D`ALENE  CLOUDY    41  36  81 SW12      30.16R
MULLAN PASS    SNOW      27  26  96 VRB7G24   30.05R VSB 1/2 WCI  19
$$




USA.gov is the U.S. government's official web portal to all federal, state and local government web resources and services.